Regional Weather Roundup
Issued by NWS

Home | Current Version | Previous Version | Text Only | Print | Product List | Glossary On
Versions: 1 2 3 4 5 6 7 8 9 10 11 12 13 14 15 16 17 18 19 20 21 22 23 24 25 26 27 28 29 30 31 32 33 34 35 36 37 38 39 40 41 42 43 44 45 46 47 48 49 50
000
ASUS43 KLMK 300102
RWRKY
KENTUCKY REGIONAL WEATHER ROUNDUP
NATIONAL WEATHER SERVICE LOUISVILLE KY
900 PM EDT SUN MAR 29 2015

NOTE "FAIR" INDICATES FEW OR NO CLOUDS BELOW 12,000 FEET
WITH NO SIGNIFICANT WEATHER AND/OR OBSTRUCTIONS TO VISIBILITY.

KYZ001>023-026-027-061>063-070>075-300200-
WESTERN AND SOUTH CENTRAL KENTUCKY

CITY           SKY/WX    TMP DP  RH WIND       PRES   REMARKS
PADUCAH        PTCLDY    56  43  61 SW6       30.02S
HENDERSON      CLOUDY    55  37  50 SW9       30.00R
OWENSBORO      MOCLDY    56  41  57 SW14      29.97F
HOPKINSVILLE   PTCLDY    56  42  58 SW10      30.05R
BOWLING GREEN  CLOUDY    58  33  39 SW10      30.04R
GLASGOW        NOT AVBL
$$

KYZ024-025-028>034-038-045-046-053-300200-
NORTH CENTRAL KENTUCKY

CITY           SKY/WX    TMP DP  RH WIND       PRES   REMARKS
LOUISVILLE/SDF CLOUDY    58  27  30 S8        29.99F
LOUISVILLE/LOU CLOUDY    58  26  29 S7        30.00F
FORT KNOX      CLOUDY    56  30  37 SW8       30.00R
$$

KYZ035>037-039>044-047>052-055>060-089>105-300200-
NORTHEAST KENTUCKY

CITY           SKY/WX    TMP DP  RH WIND       PRES   REMARKS
LEXINGTON      CLOUDY    54  21  27 SW7       30.01R
COVINGTON      LGT RAIN  49  26  41 S12       29.94F
FRANKFORT      CLOUDY    53  20  27 SW5       30.00R
$$

KYZ054-064>069-076>088-106>120-300200-
SOUTHEAST KENTUCKY

CITY           SKY/WX    TMP DP  RH WIND       PRES   REMARKS
JACKSON        PTCLDY    52  10  18 VRB3      30.02S
LONDON         PTCLDY    54  13  19 S9        30.04F
SOMERSET       NOT AVBL
MIDDLESBORO    NOT AVBL
MONTICELLO     PTCLDY    57  23  27 S14       30.06F
$$




USA.gov is the U.S. government's official web portal to all federal, state and local government web resources and services.